Tracking 35331 objects as of 14-Sep-2026
HD Live streaming from Space Station
objects crossing your sky now

STARLINK-35542

Track STARLINK-35542 now!
10-day predictions
STARLINK-35542 is classified as:


NORAD ID: 66064
Int'l Code: 2025-235G
Launch date: October 19, 2025
Source: United States (US)
Launch site: AIR FORCE EASTERN TEST RANGE (AFETR)
Your satellite tracking list
Your tracking list is empty




NASA's NSSDC Master Catalog

Two Line Element Set (TLE):
1 66064U 25235G   26257.55716535  .00022125  00000-0  66388-3 0  9994
2 66064  53.1598  87.5988 0001373 108.4041 251.7111 15.34406522 51840
Source of the keplerian elements: AFSPC